When you browse on this site, cookies collect data to enhance your experience and personalize the content and advertising you see.
Visit our Privacy Policy to learn more. By continuing to use the site, you agree to this use of cookies and data.
  • In Schweiz
  • Länderverzeichnis
  • Für 7 Tage
  • Wassertemperatur
  • Wetterkarte
  • Widgets
  • user-avatar
    Anmelden

    Stündliche Wetter Qala i Naw

    Heute, 18 Oktober, Freitag

    Zeit Temperatur Niederschläge Wind Luftdruck Luftfeuchtigkeit
    00:00 +9°C° 0 mm 1 m/S 684 mmHg 59%
    01:00 +7°C° 0 mm 0 m/S 684 mmHg 65%
    02:00 +7°C° 0 mm 0 m/S 684 mmHg 66%
    03:00 +6°C° 0 mm 0 m/S 683 mmHg 67%
    04:00 +6°C° 0 mm 0 m/S 683 mmHg 68%
    05:00 +7°C° 0 mm 0 m/S 684 mmHg 59%
    06:00 +9°C° 0 mm 0 m/S 684 mmHg 49%
    07:00 +11°C° 0 mm 0 m/S 685 mmHg 40%
    08:00 +14°C° 0 mm 1 m/S 685 mmHg 34%
    09:00 +18°C° 0 mm 1 m/S 686 mmHg 28%
    10:00 +21°C° 0 mm 1 m/S 686 mmHg 22%
    11:00 +21°C° 0 mm 2 m/S 685 mmHg 20%
    12:00 +22°C° 0 mm 3 m/S 685 mmHg 17%
    13:00 +23°C° 0 mm 4 m/S 685 mmHg 15%
    14:00 +23°C° 0 mm 4 m/S 684 mmHg 15%
    15:00 +23°C° 0 mm 4 m/S 684 mmHg 15%
    16:00 +23°C° 0 mm 4 m/S 683 mmHg 15%
    17:00 +19°C° 0 mm 4 m/S 683 mmHg 22%
    18:00 +16°C° 0 mm 3 m/S 683 mmHg 28%
    19:00 +13°C° 0 mm 2 m/S 683 mmHg 35%
    20:00 +12°C° 0 mm 2 m/S 682 mmHg 38%
    21:00 +11°C° 0 mm 1 m/S 682 mmHg 40%
    22:00 +10°C° 0 mm 1 m/S 682 mmHg 43%
    23:00 +10°C° 0 mm 1 m/S 682 mmHg 48%

    Morgen, 19 Oktober, Samstag

    Zeit Temperatur Niederschläge Wind Luftdruck Luftfeuchtigkeit
    00:00 +9°C° 0 mm 1 m/S 681 mmHg 53%
    01:00 +7°C° 0 mm 0 m/S 681 mmHg 58%
    02:00 +7°C° 0 mm 0 m/S 681 mmHg 59%
    03:00 +7°C° 0 mm 0 m/S 681 mmHg 59%
    04:00 +6°C° 0 mm 0 m/S 681 mmHg 59%
    05:00 +8°C° 0 mm 0 m/S 681 mmHg 49%
    06:00 +10°C° 0 mm 0 m/S 682 mmHg 38%
    07:00 +11°C° 0 mm 0 m/S 683 mmHg 28%
    08:00 +14°C° 0 mm 0 m/S 683 mmHg 23%
    09:00 +20°C° 0 mm 1 m/S 684 mmHg 18%
    10:00 +23°C° 0 mm 1 m/S 684 mmHg 14%
    11:00 +24°C° 0 mm 2 m/S 684 mmHg 12%
    12:00 +26°C° 0 mm 3 m/S 684 mmHg 11%
    13:00 +27°C° 0 mm 3 m/S 684 mmHg 10%
    14:00 +26°C° 0 mm 3 m/S 684 mmHg 11%
    15:00 +26°C° 0 mm 3 m/S 683 mmHg 12%
    16:00 +25°C° 0 mm 3 m/S 683 mmHg 12%
    17:00 +20°C° 0 mm 2 m/S 683 mmHg 24%
    18:00 +16°C° 0 mm 1 m/S 682 mmHg 35%
    19:00 +11°C° 0 mm 0 m/S 682 mmHg 46%
    20:00 +12°C° 0 mm 1 m/S 682 mmHg 47%
    21:00 +12°C° 0 mm 1 m/S 682 mmHg 48%
    22:00 +12°C° 0 mm 1 m/S 682 mmHg 49%
    23:00 +12°C° 0 mm 1 m/S 682 mmHg 51%

    übermorgen, 20 Oktober, Sonntag

    Zeit Temperatur Niederschläge Wind Luftdruck Luftfeuchtigkeit
    00:00 +11°C° 0 mm 1 m/S 682 mmHg 52%
    01:00 +11°C° 0 mm 1 m/S 682 mmHg 54%
    02:00 +9°C° 0 mm 0 m/S 682 mmHg 55%
    03:00 +9°C° 0 mm 0 m/S 682 mmHg 56%
    04:00 +8°C° 0 mm 0 m/S 681 mmHg 56%
    05:00 +10°C° 0 mm 0 m/S 682 mmHg 46%
    06:00 +11°C° 0 mm 0 m/S 683 mmHg 35%
    07:00 +13°C° 0 mm 0 m/S 683 mmHg 24%
    08:00 +18°C° 0 mm 1 m/S 684 mmHg 20%
    09:00 +21°C° 0 mm 1 m/S 685 mmHg 16%
    10:00 +24°C° 0 mm 1 m/S 685 mmHg 13%
    11:00 +25°C° 0 mm 2 m/S 685 mmHg 12%
    12:00 +26°C° 0 mm 3 m/S 685 mmHg 11%
    13:00 +27°C° 0 mm 5 m/S 685 mmHg 10%
    14:00 +26°C° 0 mm 5 m/S 685 mmHg 11%
    15:00 +26°C° 0 mm 5 m/S 684 mmHg 11%
    16:00 +25°C° 0 mm 4 m/S 684 mmHg 12%
    17:00 +20°C° 0 mm 3 m/S 684 mmHg 20%
    18:00 +16°C° 0 mm 2 m/S 684 mmHg 29%
    19:00 +13°C° 0 mm 1 m/S 683 mmHg 38%
    20:00 +12°C° 0 mm 1 m/S 683 mmHg 37%
    21:00 +12°C° 0 mm 1 m/S 683 mmHg 36%
    22:00 +11°C° 0 mm 1 m/S 683 mmHg 34%
    23:00 +11°C° 0 mm 1 m/S 683 mmHg 35%

    21 Oktober, Montag

    Zeit Temperatur Niederschläge Wind Luftdruck Luftfeuchtigkeit
    00:00 +11°C° 0 mm 1 m/S 683 mmHg 35%
    01:00 +9°C° 0 mm 0 m/S 683 mmHg 36%
    02:00 +9°C° 0 mm 0 m/S 683 mmHg 42%
    03:00 +8°C° 0 mm 0 m/S 683 mmHg 49%
    04:00 +7°C° 0 mm 0 m/S 683 mmHg 55%
    05:00 +9°C° 0 mm 0 m/S 683 mmHg 45%
    06:00 +10°C° 0 mm 0 m/S 684 mmHg 35%
    07:00 +12°C° 0 mm 0 m/S 684 mmHg 25%
    08:00 +16°C° 0 mm 1 m/S 685 mmHg 22%
    09:00 +19°C° 0 mm 1 m/S 685 mmHg 18%
    10:00 +21°C° 0 mm 2 m/S 686 mmHg 15%
    11:00 +22°C° 0 mm 3 m/S 685 mmHg 14%
    12:00 +24°C° 0 mm 3 m/S 685 mmHg 13%
    13:00 +25°C° 0 mm 4 m/S 685 mmHg 12%
    14:00 +25°C° 0 mm 5 m/S 684 mmHg 13%
    15:00 +23°C° 0 mm 5 m/S 684 mmHg 14%
    16:00 +23°C° 0 mm 5 m/S 684 mmHg 15%
    17:00 +20°C° 0 mm 4 m/S 684 mmHg 18%
    18:00 +18°C° 0 mm 3 m/S 684 mmHg 21%
    19:00 +15°C° 0 mm 2 m/S 684 mmHg 24%
    20:00 +14°C° 0 mm 2 m/S 684 mmHg 25%
    21:00 +14°C° 0 mm 2 m/S 684 mmHg 25%
    22:00 +13°C° 0 mm 2 m/S 683 mmHg 26%
    23:00 +12°C° 0 mm 1 m/S 683 mmHg 27%

    22 Oktober, Dienstag

    Zeit Temperatur Niederschläge Wind Luftdruck Luftfeuchtigkeit
    00:00 +11°C° 0 mm 1 m/S 683 mmHg 28%
    01:00 +11°C° 0 mm 1 m/S 683 mmHg 29%
    02:00 +10°C° 0 mm 1 m/S 683 mmHg 29%
    03:00 +10°C° 0 mm 1 m/S 682 mmHg 29%
    04:00 +9°C° 0 mm 0 m/S 682 mmHg 28%
    05:00 +10°C° 0 mm 0 m/S 683 mmHg 26%
    06:00 +11°C° 0 mm 0 m/S 684 mmHg 24%
    07:00 +12°C° 0 mm 0 m/S 684 mmHg 22%
    08:00 +15°C° 0 mm 1 m/S 685 mmHg 20%
    09:00 +16°C° 0 mm 2 m/S 685 mmHg 18%
    10:00 +17°C° 0 mm 2 m/S 685 mmHg 15%
    11:00 +18°C° 0 mm 3 m/S 685 mmHg 15%
    12:00 +19°C° 0 mm 4 m/S 685 mmHg 15%
    13:00 +20°C° 0 mm 5 m/S 684 mmHg 15%
    14:00 +20°C° 0 mm 5 m/S 684 mmHg 16%
    15:00 +20°C° 0 mm 5 m/S 684 mmHg 17%
    16:00 +20°C° 0 mm 5 m/S 684 mmHg 18%
    17:00 +17°C° 0 mm 4 m/S 684 mmHg 23%
    18:00 +13°C° 0 mm 3 m/S 684 mmHg 29%
    19:00 +10°C° 0 mm 2 m/S 683 mmHg 34%
    20:00 +9°C° 0 mm 2 m/S 683 mmHg 37%
    21:00 +9°C° 0 mm 1 m/S 683 mmHg 39%
    22:00 +8°C° 0 mm 1 m/S 683 mmHg 41%
    23:00 +8°C° 0 mm 1 m/S 683 mmHg 45%

    23 Oktober, Mittwoch

    Zeit Temperatur Niederschläge Wind Luftdruck Luftfeuchtigkeit
    00:00 +7°C° 0 mm 1 m/S 683 mmHg 48%
    01:00 +5°C° 0 mm 0 m/S 682 mmHg 52%
    02:00 +4°C° 0 mm 0 m/S 682 mmHg 57%
    03:00 +4°C° 0 mm 0 m/S 682 mmHg 61%
    04:00 +3°C° 0 mm 0 m/S 682 mmHg 66%
    05:00 +4°C° 0 mm 0 m/S 682 mmHg 58%
    06:00 +6°C° 0 mm 0 m/S 683 mmHg 50%
    07:00 +7°C° 0 mm 0 m/S 683 mmHg 42%
    08:00 +10°C° 0 mm 1 m/S 684 mmHg 37%
    09:00 +13°C° 0 mm 1 m/S 684 mmHg 31%
    10:00 +15°C° 0 mm 2 m/S 684 mmHg 25%
    11:00 +16°C° 0 mm 2 m/S 684 mmHg 23%
    12:00 +17°C° 0 mm 3 m/S 683 mmHg 22%
    13:00 +18°C° 0 mm 4 m/S 683 mmHg 20%
    14:00 +18°C° 0 mm 4 m/S 683 mmHg 19%
    15:00 +18°C° 0 mm 4 m/S 683 mmHg 19%
    16:00 +18°C° 0 mm 4 m/S 682 mmHg 19%
    17:00 +13°C° 0 mm 3 m/S 682 mmHg 26%
    18:00 +10°C° 0 mm 2 m/S 682 mmHg 34%
    19:00 +8°C° 0 mm 1 m/S 682 mmHg 41%
    20:00 +7°C° 0 mm 1 m/S 682 mmHg 45%
    21:00 +7°C° 0 mm 1 m/S 682 mmHg 50%
    22:00 +6°C° 0 mm 1 m/S 682 mmHg 54%
    23:00 +5°C° 0 mm 1 m/S 682 mmHg 56%
    Mehr zeigen